Location: Shenandoah County Park
(38.9356°N, 78.4524°W)
Time: 13:42:12
(UTC-05:00)

Vanguard 2 Rocket - Pass Details

Date: 03 December 2023
Orbit: 555 x 3309 km, 32.9° (Epoch: 02 March)

Event Time Altitude Azimuth Distance (km) Brightness Sun altitude
Rises 14:21:27 0° 229° (SW) 6,145 12.5 20.9°
Reaches altitude 10° 14:25:11 10° 225° (SW) 5,426 12.9 20.5°
Maximum altitude 14:42:09 55° 154° (SSE) 3,717 10.5 18.5°
Drops below altitude 10° 15:00:59 10° 84° (E) 5,974 10.7 16.2°
Sets 15:05:19 0° 81° (E) 6,777 10.9 15.6°
